Location: Boiro
(42.6475°N, 8.8834°W)
Time: 17:33:12
(UTC+01:00)

Transit 2A Rocket - Pass Details

Date: 01 December 2021
Orbit: 585 x 917 km, 66.7° (Epoch: 26 January)

Event Time Altitude Azimuth Distance (km) Brightness Sun altitude
Rises 16:26:08 0° 336° (NNW) 3,563 8.2 13.1°
Reaches altitude 10° 16:29:57 10° 359° (N) 2,615 7.4 12.6°
Maximum altitude 16:33:21 15° 33° (NNE) 2,247 6.9 12.2°
Drops below altitude 10° 16:36:42 10° 67° (ENE) 2,562 7.2 11.8°
Sets 16:40:21 0° 90° (E) 3,450 8.0 11.3°
